| time (UTC) | temp F | wind direction | speed MPH | gust MPH | rain 1hr in | rain 24hr in | rain mn in | humidity % | barometer mb |
| 20260905230516 | 96 | 203 | 7.0 | 13.0 | 0.00 | 0.00 | 0.00 | 26 | 1007.5 |
| 20260905230016 | 96 | 197 | 8.0 | 14.0 | 0.00 | 0.00 | 0.00 | 26 | 1007.5 |
| 20260905225515 | 96 | 209 | 8.0 | 11.0 | 0.00 | 0.00 | 0.00 | 26 | 1007.6 |
| 20260905225017 | 96 | 204 | 6.0 | 11.0 | 0.00 | 0.00 | 0.00 | 26 | 1007.7 |
| 20260905224519 | 96 | 191 | 7.0 | 12.0 | 0.00 | 0.00 | 0.00 | 26 | 1007.7 |
| 20260905224114 | 96 | 205 | 8.0 | 13.0 | 0.00 | 0.00 | 0.00 | 27 | 1007.6 |
| 20260905223514 | 96 | 215 | 8.0 | 13.0 | 0.00 | 0.00 | 0.00 | 27 | 1007.7 |
| 20260905223015 | 96 | 205 | 7.0 | 13.0 | 0.00 | 0.00 | 0.00 | 27 | 1007.7 |
| 20260905222515 | 96 | 225 | 9.0 | 13.0 | 0.00 | 0.00 | 0.00 | 27 | 1007.6 |
| 20260905222014 | 96 | 214 | 10.0 | 14.0 | 0.00 | 0.00 | 0.00 | 27 | 1007.7 |
| 20260905221514 | 96 | 209 | 9.0 | 14.0 | 0.00 | 0.00 | 0.00 | 27 | 1007.6 |
| 20260905221014 | 96 | 203 | 8.0 | 14.0 | 0.00 | 0.00 | 0.00 | 27 | 1007.7 |
| 20260905220516 | 96 | 224 | 8.0 | 13.0 | 0.00 | 0.00 | 0.00 | 27 | 1007.6 |
| 20260905220014 | 96 | 214 | 8.0 | 15.0 | 0.00 | 0.00 | 0.00 | 28 | 1007.7 |
| 20260905215514 | 96 | 213 | 10.0 | 15.0 | 0.00 | 0.00 | 0.00 | 27 | 1007.6 |
| 20260905215012 | 96 | 205 | 8.0 | 13.0 | 0.00 | 0.00 | 0.00 | 28 | 1007.7 |
| 20260905214512 | 96 | 218 | 8.0 | 14.0 | 0.00 | 0.00 | 0.00 | 27 | 1007.7 |
| 20260905213513 | 97 | 204 | 11.0 | 16.0 | 0.00 | 0.00 | 0.00 | 27 | 1007.8 |
| 20260905213013 | 97 | 211 | 11.0 | 16.0 | 0.00 | 0.00 | 0.00 | 26 | 1007.8 |
| 20260905212512 | 98 | 211 | 6.0 | 13.0 | 0.00 | 0.00 | 0.00 | 26 | 1007.9 |
| 20260905212012 | 98 | 152 | 5.0 | 11.0 | 0.00 | 0.00 | 0.00 | 24 | 1008.0 |
| 20260905211509 | 97 | 72 | 1.0 | 11.0 | 0.00 | 0.00 | 0.00 | 25 | 1008.1 |
| 20260905211010 | 97 | 122 | 4.0 | 11.0 | 0.00 | 0.00 | 0.00 | 26 | 1008.3 |
| 20260905210508 | 97 | 137 | 4.0 | 13.0 | 0.00 | 0.00 | 0.00 | 25 | 1008.3 |
| 20260905210008 | 97 | 78 | 6.0 | 13.0 | 0.00 | 0.00 | 0.00 | 25 | 1008.3 |
| 20260905205509 | 97 | 203 | 3.0 | 9.0 | 0.00 | 0.00 | 0.00 | 27 | 1008.3 |
| 20260905205007 | 96 | 175 | 4.0 | 9.0 | 0.00 | 0.00 | 0.00 | 27 | 1008.4 |
| 20260905204507 | 97 | 198 | 5.0 | 8.0 | 0.00 | 0.00 | 0.00 | 27 | 1008.3 |
| 20260905203504 | 96 | 162 | 2.0 | 12.0 | 0.00 | 0.00 | 0.00 | 28 | 1008.6 |
| 20260905203003 | 96 | 156 | 5.0 | 12.0 | 0.00 | 0.00 | 0.00 | 29 | 1008.8 |
| 20260905202505 | 97 | 162 | 7.0 | 12.0 | 0.00 | 0.00 | 0.00 | 28 | 1008.9 |
| 20260905202003 | 98 | 163 | 5.0 | 10.0 | 0.00 | 0.00 | 0.00 | 27 | 1008.8 |
| 20260905201501 | 98 | 182 | 3.0 | 8.0 | 0.00 | 0.00 | 0.00 | 27 | 1009.0 |
| 20260905201104 | 97 | 21 | 3.0 | 6.0 | 0.00 | 0.00 | 0.00 | 28 | 1009.0 |
| 20260905200601 | 96 | 183 | 3.0 | 10.0 | 0.00 | 0.00 | 0.00 | 28 | 1009.2 |
| 20260905200127 | 96 | 212 | 6.0 | 10.0 | 0.00 | 0.00 | 0.00 | 27 | 1009.2 |
| 20260905195655 | 95 | 187 | 4.0 | 10.0 | 0.00 | 0.00 | 0.00 | 29 | 1009.3 |
| 20260905195053 | 95 | 99 | 6.0 | 10.0 | 0.00 | 0.00 | 0.00 | 28 | 1009.5 |
| 20260905194553 | 95 | 87 | 4.0 | 14.0 | 0.00 | 0.00 | 0.00 | 30 | 1009.7 |
| 20260905194152 | 95 | 168 | 8.0 | 14.0 | 0.00 | 0.00 | 0.00 | 33 | 1009.8 |
| 20260905193552 | 94 | 208 | 5.0 | 12.0 | 0.00 | 0.00 | 0.00 | 34 | 1009.8 |
| 20260905193051 | 94 | 200 | 6.0 | 12.0 | 0.00 | 0.00 | 0.00 | 34 | 1010.0 |
| 20260905192549 | 94 | 186 | 6.0 | 11.0 | 0.00 | 0.00 | 0.00 | 34 | 1010.1 |
| 20260905192048 | 94 | 241 | 2.0 | 12.0 | 0.00 | 0.00 | 0.00 | 34 | 1010.2 |
| 20260905191546 | 94 | 227 | 2.0 | 11.0 | 0.00 | 0.00 | 0.00 | 34 | 1010.3 |
| 20260905191045 | 94 | 196 | 3.0 | 11.0 | 0.00 | 0.00 | 0.00 | 35 | 1010.3 |
| 20260905190542 | 93 | 179 | 1.0 | 12.0 | 0.00 | 0.00 | 0.00 | 35 | 1010.4 |
| 20260905190050 | 93 | 162 | 6.0 | 12.0 | 0.00 | 0.00 | 0.00 | 36 | 1010.6 |
| 20260905185545 | 93 | 272 | 3.0 | 10.0 | 0.00 | 0.00 | 0.00 | 36 | 1010.6 |
| 20260905185039 | 93 | 194 | 6.0 | 10.0 | 0.00 | 0.00 | 0.00 | 36 | 1010.8 |
| 20260905184539 | 93 | 198 | 0.0 | 10.0 | 0.00 | 0.00 | 0.00 | 36 | 1010.9 |
| 20260905184136 | 92 | 204 | 5.0 | 13.0 | 0.00 | 0.00 | 0.00 | 36 | 1010.8 |
| 20260905183536 | 92 | 214 | 4.0 | 13.0 | 0.00 | 0.00 | 0.00 | 36 | 1011.0 |
| 20260905183035 | 92 | 151 | 4.0 | 13.0 | 0.00 | 0.00 | 0.00 | 37 | 1011.1 |
| 20260905182534 | 91 | 196 | 3.0 | 13.0 | 0.00 | 0.00 | 0.00 | 37 | 1011.2 |
| 20260905182037 | 92 | 198 | 6.0 | 13.0 | 0.00 | 0.00 | 0.00 | 37 | 1011.3 |
| 20260905181535 | 92 | 117 | 5.0 | 9.0 | 0.00 | 0.00 | 0.00 | 37 | 1011.4 |
| 20260905181134 | 92 | 61 | 4.0 | 11.0 | 0.00 | 0.00 | 0.00 | 38 | 1011.4 |
| 20260905180531 | 91 | 177 | 4.0 | 11.0 | 0.00 | 0.00 | 0.00 | 39 | 1011.4 |
| 20260905180044 | 91 | 127 | 5.0 | 12.0 | 0.00 | 0.00 | 0.00 | 40 | 1011.5 |
| 20260905175529 | 90 | 171 | 5.0 | 12.0 | 0.00 | 0.00 | 0.00 | 41 | 1011.5 |
| 20260905175029 | 90 | 164 | 2.0 | 13.0 | 0.00 | 0.00 | 0.00 | 41 | 1011.6 |
| 20260905174528 | 90 | 204 | 7.0 | 11.0 | 0.00 | 0.00 | 0.00 | 41 | 1011.7 |
| 20260905174127 | 90 | 230 | 5.0 | 15.0 | 0.00 | 0.00 | 0.00 | 43 | 1011.7 |
| 20260905173528 | 89 | 156 | 5.0 | 15.0 | 0.00 | 0.00 | 0.00 | 43 | 1011.6 |
| 20260905173025 | 89 | 154 | 8.0 | 15.0 | 0.00 | 0.00 | 0.00 | 44 | 1011.6 |
| 20260905172525 | 89 | 197 | 6.0 | 15.0 | 0.00 | 0.00 | 0.00 | 44 | 1011.7 |
| 20260905172025 | 89 | 227 | 8.0 | 15.0 | 0.00 | 0.00 | 0.00 | 44 | 1011.8 |
| 20260905171532 | 89 | 191 | 5.0 | 10.0 | 0.00 | 0.00 | 0.00 | 44 | 1011.7 |
| 20260905171024 | 88 | 238 | 4.0 | 13.0 | 0.00 | 0.00 | 0.00 | 44 | 1011.7 |
| 20260905170523 | 89 | 201 | 8.0 | 13.0 | 0.00 | 0.00 | 0.00 | 44 | 1011.8 |
| 20260905170022 | 88 | 177 | 3.0 | 10.0 | 0.00 | 0.00 | 0.00 | 46 | 1011.8 |
| 20260905165525 | 88 | 150 | 7.0 | 11.0 | 0.00 | 0.00 | 0.00 | 46 | 1011.9 |
| 20260905165020 | 87 | 186 | 6.0 | 11.0 | 0.00 | 0.00 | 0.00 | 46 | 1011.9 |
| 20260905164519 | 87 | 179 | 6.0 | 11.0 | 0.00 | 0.00 | 0.00 | 47 | 1011.9 |
| 20260905164119 | 86 | 184 | 4.0 | 12.0 | 0.00 | 0.00 | 0.00 | 47 | 1011.8 |
| 20260905163519 | 86 | 185 | 5.0 | 12.0 | 0.00 | 0.00 | 0.00 | 47 | 1011.9 |
| 20260905163019 | 86 | 140 | 4.0 | 11.0 | 0.00 | 0.00 | 0.00 | 47 | 1011.9 |
| 20260905162517 | 86 | 182 | 6.0 | 11.0 | 0.00 | 0.00 | 0.00 | 47 | 1011.9 |
| 20260905162020 | 85 | 187 | 5.0 | 10.0 | 0.00 | 0.00 | 0.00 | 48 | 1011.9 |
| 20260905161523 | 85 | 210 | 4.0 | 12.0 | 0.00 | 0.00 | 0.00 | 49 | 1012.0 |
| 20260905161016 | 85 | 238 | 8.0 | 12.0 | 0.00 | 0.00 | 0.00 | 49 | 1012.0 |
| 20260905160517 | 85 | 139 | 4.0 | 11.0 | 0.00 | 0.00 | 0.00 | 50 | 1012.0 |
| 20260905160016 | 84 | 198 | 6.0 | 11.0 | 0.00 | 0.00 | 0.00 | 51 | 1012.1 |
| 20260905155513 | 84 | 212 | 6.0 | 11.0 | 0.00 | 0.00 | 0.00 | 51 | 1012.1 |
| 20260905155011 | 84 | 162 | 6.0 | 11.0 | 0.00 | 0.00 | 0.00 | 52 | 1012.1 |
| 20260905154510 | 83 | 214 | 7.0 | 12.0 | 0.00 | 0.00 | 0.00 | 52 | 1012.1 |
| 20260905154109 | 83 | 196 | 4.0 | 11.0 | 0.00 | 0.00 | 0.00 | 52 | 1012.1 |
| 20260905153509 | 83 | 218 | 5.0 | 12.0 | 0.00 | 0.00 | 0.00 | 52 | 1012.0 |
| 20260905153007 | 83 | 206 | 4.0 | 12.0 | 0.00 | 0.00 | 0.00 | 53 | 1012.1 |
| 20260905152507 | 82 | 200 | 4.0 | 11.0 | 0.00 | 0.00 | 0.00 | 54 | 1012.1 |
| 20260905152006 | 82 | 219 | 8.0 | 11.0 | 0.00 | 0.00 | 0.00 | 54 | 1012.1 |
| 20260905151506 | 82 | 194 | 7.0 | 13.0 | 0.00 | 0.00 | 0.00 | 54 | 1012.1 |
| 20260905151005 | 82 | 241 | 7.0 | 13.0 | 0.00 | 0.00 | 0.00 | 55 | 1012.1 |
| 20260905150506 | 82 | 199 | 6.0 | 11.0 | 0.00 | 0.00 | 0.00 | 55 | 1012.1 |
| 20260905150005 | 81 | 160 | 4.0 | 10.0 | 0.00 | 0.00 | 0.00 | 55 | 1012.2 |
| 20260905145506 | 81 | 214 | 6.0 | 10.0 | 0.00 | 0.00 | 0.00 | 55 | 1012.2 |
| 20260905145005 | 81 | 157 | 5.0 | 11.0 | 0.00 | 0.00 | 0.00 | 56 | 1012.2 |
| 20260905144504 | 80 | 169 | 6.0 | 13.0 | 0.00 | 0.00 | 0.00 | 56 | 1012.3 |
| 20260905144105 | 80 | 202 | 5.0 | 12.0 | 0.00 | 0.00 | 0.00 | 56 | 1012.3 |
| 20260905143506 | 80 | 198 | 5.0 | 12.0 | 0.00 | 0.00 | 0.00 | 56 | 1012.2 |
| 20260905143007 | 80 | 171 | 6.0 | 12.0 | 0.00 | 0.00 | 0.00 | 57 | 1012.3 |
| 20260905142508 | 79 | 199 | 6.0 | 14.0 | 0.00 | 0.00 | 0.00 | 58 | 1012.3 |
| 20260905142005 | 79 | 189 | 8.0 | 14.0 | 0.00 | 0.00 | 0.00 | 57 | 1012.2 |
| 20260905141511 | 79 | 176 | 5.0 | 14.0 | 0.00 | 0.00 | 0.00 | 58 | 1012.2 |
| 20260905141004 | 79 | 193 | 8.0 | 14.0 | 0.00 | 0.00 | 0.00 | 58 | 1012.1 |
| 20260905140507 | 79 | 199 | 6.0 | 13.0 | 0.00 | 0.00 | 0.00 | 58 | 1012.0 |
| 20260905140009 | 79 | 183 | 7.0 | 13.0 | 0.00 | 0.00 | 0.00 | 57 | 1012.1 |
| 20260905135504 | 79 | 195 | 6.0 | 10.0 | 0.00 | 0.00 | 0.00 | 57 | 1012.0 |
| 20260905135002 | 78 | 193 | 4.0 | 9.0 | 0.00 | 0.00 | 0.00 | 57 | 1011.9 |
| 20260905134501 | 78 | 181 | 5.0 | 9.0 | 0.00 | 0.00 | 0.00 | 58 | 1011.9 |
| 20260905134101 | 78 | 127 | 4.0 | 8.0 | 0.00 | 0.00 | 0.00 | 58 | 1011.9 |
| 20260905133059 | 78 | 171 | 3.0 | 7.0 | 0.00 | 0.00 | 0.00 | 58 | 1011.7 |
| 20260905132600 | 78 | 159 | 3.0 | 8.0 | 0.00 | 0.00 | 0.00 | 58 | 1011.6 |
| 20260905132059 | 77 | 182 | 2.0 | 7.0 | 0.00 | 0.00 | 0.00 | 59 | 1011.7 |
| 20260905131558 | 77 | 188 | 3.0 | 7.0 | 0.00 | 0.00 | 0.00 | 59 | 1011.7 |
| 20260905131057 | 77 | 168 | 2.0 | 5.0 | 0.00 | 0.00 | 0.00 | 59 | 1011.5 |
| 20260905130557 | 77 | 167 | 3.0 | 5.0 | 0.00 | 0.00 | 0.00 | 59 | 1011.4 |
| 20260905130056 | 77 | 166 | 2.0 | 6.0 | 0.00 | 0.00 | 0.00 | 59 | 1011.3 |
| 20260905125555 | 77 | 175 | 3.0 | 6.0 | 0.00 | 0.00 | 0.00 | 59 | 1011.3 |
| 20260905125055 | 77 | 175 | 1.0 | 6.0 | 0.00 | 0.00 | 0.00 | 59 | 1011.3 |
| 20260905124557 | 77 | 175 | 2.0 | 6.0 | 0.00 | 0.00 | 0.00 | 59 | 1011.2 |
| 20260905124054 | 77 | 173 | 2.0 | 4.0 | 0.00 | 0.00 | 0.00 | 59 | 1011.2 |
| 20260905123053 | 77 | 173 | 2.0 | 4.0 | 0.00 | 0.00 | 0.00 | 59 | 1011.1 |
| 20260905122552 | 77 | 173 | 1.0 | 4.0 | 0.00 | 0.00 | 0.00 | 59 | 1011.0 |
| 20260905122054 | 77 | 173 | 3.0 | 6.0 | 0.00 | 0.00 | 0.00 | 59 | 1010.9 |
| 20260905121553 | 77 | 173 | 3.0 | 6.0 | 0.00 | 0.00 | 0.00 | 59 | 1010.8 |
| 20260905121053 | 77 | 174 | 3.0 | 6.0 | 0.00 | 0.00 | 0.00 | 59 | 1010.8 |
| 20260905120550 | 77 | 180 | 3.0 | 8.0 | 0.00 | 0.00 | 0.00 | 58 | 1010.8 |
| 20260905120100 | 77 | 183 | 3.0 | 8.0 | 0.00 | 0.00 | 0.00 | 58 | 1010.8 |
| 20260905115549 | 77 | 184 | 4.0 | 7.0 | 0.00 | 0.00 | 0.00 | 58 | 1010.8 |
| 20260905115051 | 77 | 180 | 3.0 | 7.0 | 0.00 | 0.00 | 0.00 | 58 | 1010.7 |
| 20260905114601 | 77 | 175 | 4.0 | 7.0 | 0.00 | 0.00 | 0.00 | 58 | 1010.8 |
| 20260905114049 | 77 | 170 | 2.0 | 7.0 | 0.00 | 0.00 | 0.00 | 57 | 1010.8 |
| 20260905113056 | 77 | 170 | 3.0 | 7.0 | 0.00 | 0.00 | 0.00 | 57 | 1010.7 |
| 20260905112549 | 77 | 185 | 3.0 | 6.0 | 0.00 | 0.00 | 0.00 | 57 | 1010.7 |
| 20260905112049 | 77 | 186 | 4.0 | 6.0 | 0.00 | 0.00 | 0.00 | 57 | 1010.7 |
| 20260905111634 | 77 | 188 | 4.0 | 6.0 | 0.00 | 0.00 | 0.00 | 57 | 1010.6 |
| 20260905111048 | 77 | 190 | 4.0 | 6.0 | 0.00 | 0.00 | 0.00 | 56 | 1010.5 |
| 20260905110547 | 78 | 165 | 3.0 | 5.0 | 0.00 | 0.00 | 0.00 | 56 | 1010.6 |
| 20260905110047 | 78 | 164 | 2.0 | 5.0 | 0.00 | 0.00 | 0.00 | 56 | 1010.6 |
| 20260905105547 | 78 | 164 | 2.0 | 5.0 | 0.00 | 0.00 | 0.00 | 56 | 1010.5 |
| 20260905105047 | 78 | 164 | 1.0 | 5.0 | 0.00 | 0.00 | 0.00 | 56 | 1010.4 |
| 20260905104548 | 78 | 164 | 1.0 | 4.0 | 0.00 | 0.00 | 0.00 | 56 | 1010.3 |
| 20260905104046 | 78 | 164 | 2.0 | 4.0 | 0.00 | 0.00 | 0.00 | 55 | 1010.3 |
| 20260905103046 | 78 | 164 | 2.0 | 4.0 | 0.00 | 0.00 | 0.00 | 55 | 1010.4 |
| 20260905102549 | 78 | 164 | 1.0 | 4.0 | 0.00 | 0.00 | 0.00 | 55 | 1010.3 |
| 20260905102044 | 78 | 164 | 1.0 | 4.0 | 0.00 | 0.00 | 0.00 | 54 | 1010.5 |
| 20260905101544 | 78 | 164 | 1.0 | 4.0 | 0.00 | 0.00 | 0.00 | 54 | 1010.4 |
| 20260905101043 | 79 | 164 | 2.0 | 4.0 | 0.00 | 0.00 | 0.00 | 54 | 1010.4 |
| 20260905100542 | 79 | 164 | 2.0 | 5.0 | 0.00 | 0.00 | 0.00 | 54 | 1010.4 |
| 20260905100041 | 79 | 164 | 2.0 | 6.0 | 0.00 | 0.00 | 0.00 | 54 | 1010.3 |
| 20260905095540 | 79 | 164 | 3.0 | 6.0 | 0.00 | 0.00 | 0.00 | 53 | 1010.3 |
| 20260905095040 | 79 | 165 | 2.0 | 7.0 | 0.00 | 0.00 | 0.00 | 53 | 1010.3 |
| 20260905094539 | 79 | 164 | 4.0 | 9.0 | 0.00 | 0.00 | 0.00 | 53 | 1010.3 |
| 20260905094042 | 80 | 162 | 4.0 | 10.0 | 0.00 | 0.00 | 0.00 | 52 | 1010.3 |
| 20260905093042 | 80 | 184 | 4.0 | 9.0 | 0.00 | 0.00 | 0.00 | 52 | 1010.2 |
| 20260905092539 | 80 | 158 | 5.0 | 12.0 | 0.00 | 0.00 | 0.00 | 52 | 1010.1 |
| 20260905092038 | 80 | 193 | 5.0 | 9.0 | 0.00 | 0.00 | 0.00 | 52 | 1010.1 |
| 20260905091537 | 80 | 171 | 5.0 | 9.0 | 0.00 | 0.00 | 0.00 | 51 | 1010.1 |
| 20260905091037 | 80 | 171 | 4.0 | 9.0 | 0.00 | 0.00 | 0.00 | 51 | 1010.1 |
| 20260905090539 | 80 | 183 | 4.0 | 11.0 | 0.00 | 0.00 | 0.00 | 51 | 1010.0 |
| 20260905090037 | 80 | 164 | 6.0 | 11.0 | 0.00 | 0.00 | 0.00 | 51 | 1010.0 |
| 20260905085537 | 81 | 190 | 5.0 | 9.0 | 0.00 | 0.00 | 0.00 | 51 | 1010.2 |
| 20260905085036 | 81 | 187 | 4.0 | 9.0 | 0.00 | 0.00 | 0.00 | 51 | 1010.3 |
| 20260905084538 | 81 | 179 | 4.0 | 10.0 | 0.00 | 0.00 | 0.00 | 51 | 1010.3 |
| 20260905084037 | 81 | 206 | 4.0 | 8.0 | 0.00 | 0.00 | 0.00 | 51 | 1010.3 |
| 20260905083036 | 81 | 160 | 3.0 | 8.0 | 0.00 | 0.00 | 0.00 | 51 | 1010.3 |
| 20260905082536 | 81 | 166 | 3.0 | 8.0 | 0.00 | 0.00 | 0.00 | 51 | 1010.4 |
| 20260905082036 | 80 | 193 | 3.0 | 6.0 | 0.00 | 0.00 | 0.00 | 51 | 1010.5 |
| 20260905081536 | 80 | 187 | 3.0 | 6.0 | 0.00 | 0.00 | 0.00 | 51 | 1010.4 |
| 20260905081035 | 80 | 193 | 2.0 | 6.0 | 0.00 | 0.00 | 0.00 | 51 | 1010.5 |
| 20260905080535 | 80 | 198 | 3.0 | 8.0 | 0.00 | 0.00 | 0.00 | 51 | 1010.5 |
| 20260905080037 | 81 | 200 | 3.0 | 8.0 | 0.00 | 0.00 | 0.00 | 51 | 1010.4 |
| 20260905075536 | 81 | 187 | 3.0 | 12.0 | 0.00 | 0.00 | 0.00 | 51 | 1010.4 |
| 20260905075034 | 81 | 180 | 3.0 | 12.0 | 0.00 | 0.00 | 0.00 | 51 | 1010.4 |
| 20260905074534 | 81 | 165 | 2.0 | 6.0 | 0.00 | 0.00 | 0.00 | 51 | 1010.4 |
| 20260905074035 | 81 | 163 | 3.0 | 6.0 | 0.00 | 0.00 | 0.00 | 51 | 1010.6 |
| 20260905073038 | 81 | 168 | 3.0 | 6.0 | 0.00 | 0.00 | 0.00 | 51 | 1010.6 |
| 20260905072533 | 81 | 168 | 2.0 | 6.0 | 0.00 | 0.00 | 0.00 | 51 | 1010.6 |
| 20260905072033 | 81 | 145 | 2.0 | 5.0 | 0.00 | 0.00 | 0.00 | 51 | 1010.5 |
| 20260905071537 | 81 | 146 | 2.0 | 5.0 | 0.00 | 0.00 | 0.00 | 51 | 1010.5 |
| 20260905071032 | 81 | 146 | 2.0 | 5.0 | 0.00 | 0.00 | 0.00 | 51 | 1010.4 |
| 20260905070535 | 81 | 146 | 2.0 | 4.0 | 0.00 | 0.00 | 0.00 | 51 | 1010.4 |
| 20260905070046 | 81 | 146 | 1.0 | 5.0 | 0.00 | 0.00 | 0.00 | 51 | 1010.5 |
| 20260905065532 | 81 | 146 | 2.0 | 5.0 | 0.00 | 0.00 | 0.00 | 51 | 1010.4 |
| 20260905065031 | 81 | 146 | 2.0 | 4.0 | 0.00 | 0.00 | 0.00 | 51 | 1010.4 |
| 20260905064542 | 81 | 146 | 2.0 | 4.0 | 0.00 | 0.00 | 0.00 | 51 | 1010.4 |
| 20260905064030 | 81 | 146 | 2.0 | 4.0 | 0.00 | 0.00 | 0.00 | 50 | 1010.3 |
| 20260905063031 | 81 | 146 | 3.0 | 5.0 | 0.00 | 0.00 | 0.00 | 50 | 1010.2 |
| 20260905062530 | 81 | 145 | 2.0 | 5.0 | 0.00 | 0.00 | 0.00 | 50 | 1010.3 |
| 20260905062030 | 81 | 145 | 2.0 | 5.0 | 0.00 | 0.00 | 0.00 | 50 | 1010.2 |
| 20260905061529 | 81 | 153 | 2.0 | 4.0 | 0.00 | 0.00 | 0.00 | 49 | 1010.2 |
| 20260905061028 | 81 | 154 | 2.0 | 4.0 | 0.00 | 0.00 | 0.00 | 49 | 1010.2 |
| 20260905060528 | 82 | 154 | 1.0 | 4.0 | 0.00 | 0.00 | 0.00 | 49 | 1010.0 |
| 20260905060028 | 82 | 153 | 2.0 | 4.0 | 0.00 | 0.00 | 0.00 | 49 | 1010.2 |
| 20260905055529 | 82 | 153 | 1.0 | 4.0 | 0.00 | 0.00 | 0.00 | 49 | 1010.1 |
| 20260905055032 | 82 | 153 | 1.0 | 5.0 | 0.00 | 0.00 | 0.00 | 49 | 1010.0 |
| 20260905054535 | 82 | 153 | 2.0 | 6.0 | 0.00 | 0.00 | 0.00 | 49 | 1010.0 |
| 20260905054030 | 82 | 153 | 3.0 | 8.0 | 0.00 | 0.00 | 0.00 | 49 | 1010.1 |
| 20260905053025 | 82 | 159 | 4.0 | 6.0 | 0.00 | 0.00 | 0.00 | 49 | 1010.0 |
| 20260905052525 | 82 | 157 | 2.0 | 5.0 | 0.00 | 0.00 | 0.00 | 49 | 1010.0 |
| 20260905052025 | 82 | 156 | 2.0 | 5.0 | 0.00 | 0.00 | 0.00 | 49 | 1010.1 |
| 20260905051538 | 82 | 157 | 3.0 | 5.0 | 0.00 | 0.00 | 0.00 | 49 | 1010.1 |
| 20260905051023 | 82 | 157 | 2.0 | 4.0 | 0.00 | 0.00 | 0.00 | 49 | 1010.1 |
| 20260905050524 | 82 | 156 | 2.0 | 5.0 | 0.00 | 0.00 | 0.00 | 49 | 1010.3 |
| 20260905050020 | 82 | 157 | 2.0 | 8.0 | 0.00 | 0.00 | 0.00 | 49 | 1010.3 |
| 20260905045521 | 82 | 158 | 3.0 | 8.0 | 0.00 | 0.00 | 0.00 | 49 | 1010.3 |
| 20260905045021 | 82 | 194 | 2.0 | 8.0 | 0.00 | 0.00 | 0.00 | 49 | 1010.2 |
| 20260905044521 | 82 | 179 | 3.0 | 6.0 | 0.00 | 0.00 | 0.00 | 50 | 1010.2 |
| 20260905044020 | 82 | 175 | 3.0 | 6.0 | 0.00 | 0.00 | 0.00 | 50 | 1010.2 |
| 20260905043022 | 82 | 174 | 3.0 | 6.0 | 0.00 | 0.00 | 0.00 | 50 | 1010.1 |
| 20260905042521 | 82 | 181 | 2.0 | 6.0 | 0.00 | 0.00 | 0.00 | 50 | 1010.2 |
| 20260905042021 | 82 | 191 | 2.0 | 6.0 | 0.00 | 0.00 | 0.00 | 50 | 1010.2 |
| 20260905041521 | 82 | 174 | 3.0 | 6.0 | 0.00 | 0.00 | 0.00 | 50 | 1010.1 |
| 20260905041020 | 82 | 174 | 3.0 | 6.0 | 0.00 | 0.00 | 0.00 | 50 | 1010.1 |
| 20260905040520 | 82 | 162 | 3.0 | 6.0 | 0.00 | 0.00 | 0.00 | 50 | 1010.1 |
| 20260905040024 | 82 | 161 | 3.0 | 7.0 | 0.00 | 0.00 | 0.00 | 50 | 1010.2 |
| 20260905035519 | 81 | 161 | 3.0 | 9.0 | 0.00 | 0.00 | 0.00 | 50 | 1010.2 |
| 20260905035021 | 81 | 142 | 4.0 | 9.0 | 0.00 | 0.00 | 0.00 | 51 | 1010.3 |
| 20260905034528 | 81 | 131 | 3.0 | 9.0 | 0.00 | 0.00 | 0.00 | 51 | 1010.3 |
| 20260905034020 | 81 | 160 | 3.0 | 6.0 | 0.00 | 0.00 | 0.00 | 51 | 1010.4 |
| 20260905033026 | 81 | 166 | 2.0 | 6.0 | 0.00 | 0.00 | 0.00 | 50 | 1010.4 |
| 20260905032521 | 81 | 185 | 4.0 | 9.0 | 0.00 | 0.00 | 0.00 | 51 | 1010.4 |
| 20260905032024 | 81 | 183 | 4.0 | 10.0 | 0.00 | 0.00 | 0.00 | 50 | 1010.3 |
| 20260905031521 | 81 | 183 | 5.0 | 10.0 | 0.00 | 0.00 | 0.00 | 50 | 1010.4 |
| 20260905031020 | 81 | 185 | 4.0 | 10.0 | 0.00 | 0.00 | 0.00 | 50 | 1010.4 |
| 20260905030521 | 81 | 169 | 5.0 | 10.0 | 0.00 | 0.00 | 0.00 | 49 | 1010.3 |
| 20260905030022 | 82 | 182 | 4.0 | 9.0 | 0.00 | 0.00 | 0.00 | 48 | 1010.1 |
| 20260905025522 | 82 | 175 | 4.0 | 9.0 | 0.00 | 0.00 | 0.00 | 48 | 1010.0 |
| 20260905025020 | 82 | 178 | 4.0 | 11.0 | 0.00 | 0.00 | 0.00 | 48 | 1009.9 |
| 20260905024523 | 82 | 191 | 8.0 | 11.0 | 0.00 | 0.00 | 0.00 | 48 | 1009.9 |
| 20260905024021 | 81 | 196 | 6.0 | 14.0 | 0.00 | 0.00 | 0.00 | 49 | 1009.8 |
| 20260905023017 | 81 | 200 | 8.0 | 14.0 | 0.00 | 0.00 | 0.00 | 49 | 1009.8 |
| 20260905022517 | 81 | 213 | 9.0 | 12.0 | 0.00 | 0.00 | 0.00 | 49 | 1009.9 |
| 20260905022017 | 81 | 204 | 5.0 | 11.0 | 0.00 | 0.00 | 0.00 | 50 | 1010.1 |
| 20260905021533 | 81 | 199 | 7.0 | 14.0 | 0.00 | 0.00 | 0.00 | 50 | 1010.3 |
| 20260905021016 | 81 | 194 | 8.0 | 15.0 | 0.00 | 0.00 | 0.00 | 50 | 1010.3 |
| 20260905020517 | 80 | 185 | 10.0 | 15.0 | 0.00 | 0.00 | 0.00 | 51 | 1010.3 |
| 20260905020021 | 80 | 173 | 8.0 | 13.0 | 0.00 | 0.00 | 0.00 | 51 | 1010.3 |
| 20260905015515 | 80 | 189 | 6.0 | 15.0 | 0.00 | 0.00 | 0.00 | 52 | 1010.2 |
| 20260905015017 | 80 | 189 | 9.0 | 18.0 | 0.00 | 0.00 | 0.00 | 52 | 1010.4 |
| 20260905014515 | 80 | 208 | 13.0 | 20.0 | 0.00 | 0.00 | 0.00 | 52 | 1010.3 |
| 20260905014015 | 81 | 199 | 12.0 | 19.0 | 0.00 | 0.00 | 0.00 | 50 | 1010.6 |
| 20260905013018 | 81 | 191 | 6.0 | 16.0 | 0.00 | 0.00 | 0.00 | 50 | 1010.3 |
| 20260905012518 | 81 | 164 | 8.0 | 17.0 | 0.00 | 0.00 | 0.00 | 50 | 1010.1 |
| 20260905012018 | 81 | 188 | 11.0 | 21.0 | 0.00 | 0.00 | 0.00 | 50 | 1010.1 |
| 20260905011517 | 81 | 185 | 13.0 | 32.0 | 0.00 | 0.00 | 0.00 | 50 | 1010.1 |
| 20260905011019 | 81 | 167 | 16.0 | 32.0 | 0.00 | 0.00 | 0.00 | 50 | 1009.8 |
| 20260905010518 | 81 | 133 | 14.0 | 26.0 | 0.00 | 0.00 | 0.00 | 50 | 1009.3 |
| 20260905010020 | 82 | 148 | 11.0 | 24.0 | 0.00 | 0.00 | 0.00 | 49 | 1009.1 |
| 20260905005517 | 83 | 158 | 13.0 | 25.0 | 0.00 | 0.00 | 0.00 | 47 | 1008.9 |
| 20260905005017 | 84 | 173 | 12.0 | 25.0 | 0.00 | 0.00 | 0.00 | 47 | 1008.7 |
| 20260905004520 | 84 | 185 | 9.0 | 22.0 | 0.00 | 0.00 | 0.00 | 47 | 1008.6 |
| 20260905004017 | 85 | 75 | 12.0 | 26.0 | 0.00 | 0.00 | 0.00 | 45 | 1008.6 |
| 20260905003028 | 85 | 127 | 9.0 | 19.0 | 0.00 | 0.00 | 0.00 | 44 | 1008.5 |
| 20260905002520 | 85 | 112 | 10.0 | 22.0 | 0.00 | 0.00 | 0.00 | 44 | 1008.4 |
| 20260905002020 | 85 | 136 | 9.0 | 33.0 | 0.00 | 0.00 | 0.00 | 44 | 1008.2 |
| 20260905001520 | 86 | 127 | 15.0 | 33.0 | 0.00 | 0.00 | 0.00 | 43 | 1008.1 |
| 20260905001020 | 88 | 152 | 17.0 | 31.0 | 0.00 | 0.00 | 0.00 | 41 | 1008.0 |
| 20260905000520 | 89 | 104 | 13.0 | 29.0 | 0.00 | 0.00 | 0.00 | 38 | 1007.9 |
| 20260905000020 | 92 | 137 | 18.0 | 27.0 | 0.00 | 0.00 | 0.00 | 35 | 1007.8 |
| 20260904235519 | 97 | 127 | 14.0 | 26.0 | 0.00 | 0.00 | 0.00 | 28 | 1007.8 |
| 20260904235019 | 100 | 163 | 7.0 | 13.0 | 0.00 | 0.00 | 0.00 | 22 | 1007.2 |
| 20260904234519 | 100 | 179 | 8.0 | 13.0 | 0.00 | 0.00 | 0.00 | 22 | 1007.2 |
| 20260904234021 | 100 | 183 | 10.0 | 17.0 | 0.00 | 0.00 | 0.00 | 22 | 1007.0 |
| 20260904233014 | 100 | 157 | 4.0 | 13.0 | 0.00 | 0.00 | 0.00 | 21 | 1006.8 |
| 20260904232515 | 100 | 199 | 4.0 | 10.0 | 0.00 | 0.00 | 0.00 | 20 | 1006.8 |
| 20260904232012 | 100 | 181 | 4.0 | 11.0 | 0.00 | 0.00 | 0.00 | 20 | 1006.8 |
| 20260904231513 | 100 | 150 | 2.0 | 12.0 | 0.00 | 0.00 | 0.00 | 19 | 1006.6 |
| 20260904231013 | 100 | 165 | 5.0 | 12.0 | 0.00 | 0.00 | 0.00 | 20 | 1006.4 |